SP5AP-3 Weather Reports


Display with metric or nautical units.
time (UTC)temp
F
wind
direction
speed
MPH
gust
MPH
rain 1hr
in
rain 24hr
in
rain mn
in
humidity
%
barometer
mb
20260504223829 63 0 0.0 0.0 0.00 0.00 0.00 6 1010.1
20260504223329 64 0 0.0 0.0 0.00 0.00 0.00 5 1010.0
20260504222829 64 0 0.0 0.0 0.00 0.00 0.00 5 1010.2
20260504222328 63 0 0.0 0.0 0.00 0.00 0.00 5 1010.3
20260504221828 63 0 0.0 0.0 0.00 0.00 0.00 5 1010.2
20260504221328 64 0 0.0 0.0 0.00 0.00 0.00 5 1010.2
20260504220827 64 0 0.0 0.0 0.00 0.00 0.00 5 1010.0
20260504220327 64 0 0.0 0.0 0.00 0.00 0.00 5 1010.4
20260504215827 64 0 0.0 0.0 0.00 0.00 0.00 5 1010.4
20260504215326 64 0 0.0 0.0 0.00 0.00 0.00 5 1010.3
20260504214826 64 0 0.0 0.0 0.00 0.00 0.00 5 1010.1
20260504214326 64 0 0.0 0.0 0.00 0.00 0.00 5 1010.2
20260504213825 65 0 0.0 0.0 0.00 0.00 0.00 5 1010.1
20260504213325 65 0 0.0 0.0 0.00 0.00 0.00 5 1010.2
20260504212825 66 0 0.0 0.0 0.00 0.00 0.00 5 1010.3
20260504212324 66 0 0.0 0.0 0.00 0.00 0.00 5 1010.3
20260504211824 66 0 0.0 0.0 0.00 0.00 0.00 5 1010.2
20260504211324 67 0 0.0 0.0 0.00 0.00 0.00 5 1010.2
20260504210823 67 0 0.0 0.0 0.00 0.00 0.00 5 1010.3
20260504210323 67 0 0.0 0.0 0.00 0.00 0.00 5 1010.3
20260504205823 68 0 0.0 0.0 0.00 0.00 0.00 4 1010.3
20260504205322 68 0 0.0 0.0 0.00 0.00 0.00 4 1010.2
20260504204822 68 0 0.0 0.0 0.00 0.00 0.00 4 1010.2
20260504204322 68 0 0.0 0.0 0.00 0.00 0.00 4 1010.1
20260504203821 68 0 0.0 0.0 0.00 0.00 0.00 4 1010.1
20260504203321 68 0 0.0 0.0 0.00 0.00 0.00 4 1009.9
20260504202821 68 0 0.0 0.0 0.00 0.00 0.00 4 1009.8
20260504202320 69 0 0.0 0.0 0.00 0.00 0.00 4 1010.1
20260504201820 69 0 0.0 0.0 0.00 0.00 0.00 4 1009.9
20260504201320 69 0 0.0 0.0 0.00 0.00 0.00 4 1010.1
20260504200819 69 0 0.0 0.0 0.00 0.00 0.00 4 1009.9
20260504200319 69 0 0.0 0.0 0.00 0.00 0.00 4 1009.8
20260504195819 69 0 0.0 0.0 0.00 0.00 0.00 4 1009.7
20260504195318 68 0 0.0 0.0 0.00 0.00 0.00 4 1009.8
20260504194818 68 0 0.0 0.0 0.00 0.00 0.00 4 1009.7
20260504194318 69 0 0.0 0.0 0.00 0.00 0.00 4 1009.7
20260504193817 69 0 0.0 0.0 0.00 0.00 0.00 4 1009.6
20260504193317 69 0 0.0 0.0 0.00 0.00 0.00 4 1009.6
20260504192817 70 0 0.0 0.0 0.00 0.00 0.00 4 1009.8
20260504192316 70 0 0.0 0.0 0.00 0.00 0.00 4 1009.8
20260504191816 70 0 0.0 0.0 0.00 0.00 0.00 4 1009.9
20260504191316 70 0 0.0 0.0 0.00 0.00 0.00 4 1009.8
20260504190815 70 0 0.0 0.0 0.00 0.00 0.00 4 1009.6
20260504190315 71 0 0.0 0.0 0.00 0.00 0.00 4 1009.7
20260504185815 71 0 0.0 0.0 0.00 0.00 0.00 4 1009.7
20260504185314 71 0 0.0 0.0 0.00 0.00 0.00 4 1009.6
20260504184814 71 0 0.0 0.0 0.00 0.00 0.00 4 1009.7
20260504184314 71 0 0.0 0.0 0.00 0.00 0.00 4 1009.6
20260504183813 72 0 0.0 0.0 0.00 0.00 0.00 4 1009.5
20260504183313 72 0 0.0 0.0 0.00 0.00 0.00 3 1009.6
20260504182813 72 0 0.0 0.0 0.00 0.00 0.00 3 1009.3
20260504182312 72 0 0.0 0.0 0.00 0.00 0.00 3 1009.2
20260504181812 73 0 0.0 0.0 0.00 0.00 0.00 3 1009.3
20260504181311 73 0 0.0 0.0 0.00 0.00 0.00 3 1009.3
20260504180811 73 0 0.0 0.0 0.00 0.00 0.00 3 1009.4
20260504180311 74 0 0.0 0.0 0.00 0.00 0.00 3 1009.3
20260504175811 74 0 0.0 0.0 0.00 0.00 0.00 3 1009.3
20260504175310 75 0 0.0 0.0 0.00 0.00 0.00 3 1009.3
20260504174810 75 0 0.0 0.0 0.00 0.00 0.00 3 1009.2
20260504174310 75 343 0.0 1.0 0.00 0.00 0.00 3 1009.1
20260504173809 75 0 0.0 0.0 0.00 0.00 0.00 3 1009.1
20260504173309 76 0 0.0 0.0 0.00 0.00 0.00 3 1009.4
20260504172809 76 45 0.0 1.0 0.00 0.00 0.00 3 1009.0
20260504172308 76 258 1.0 2.0 0.00 0.00 0.00 3 1009.1
20260504171808 76 11 0.0 1.0 0.00 0.00 0.00 3 1009.0
20260504171308 77 12 0.0 1.0 0.00 0.00 0.00 3 1009.1
20260504170807 77 218 0.0 1.0 0.00 0.00 0.00 3 1008.8
20260504170307 77 0 0.0 0.0 0.00 0.00 0.00 3 1009.0
20260504160303 79 251 0.0 1.0 0.00 0.00 0.00 3 1009.1
20260504150759 80 4 0.0 1.0 0.00 0.00 0.00 3 1009.2
20260504150259 80 12 0.0 1.0 0.00 0.00 0.00 3 1009.3
20260504141256 80 242 2.0 3.0 0.00 0.00 0.00 3 1009.5
20260504140755 80 347 0.0 1.0 0.00 0.00 0.00 3 1009.4
20260504140255 80 334 0.0 1.0 0.00 0.00 0.00 3 1009.6
20260504130751 79 215 2.0 3.0 0.00 0.00 0.00 3 1010.0
20260504130251 79 16 1.0 5.0 0.00 0.00 0.00 3 1010.2
20260504120247 80 354 0.0 1.0 0.00 0.00 0.00 3 1010.7
20260504110243 79 0 0.0 0.0 0.00 0.00 0.00 2 1011.1
20260504100239 78 0 0.0 0.0 0.00 0.00 0.00 3 1011.6
20260504081732 75 350 1.0 2.0 0.00 0.00 0.00 3 1012.0
20260504081232 75 0 2.0 3.0 0.00 0.00 0.00 3 1012.0
20260504080731 75 205 1.0 2.0 0.00 0.00 0.00 3 1011.9
20260504080231 74 86 1.0 1.0 0.00 0.00 0.00 3 1012.1
20260504070227 71 26 0.0 1.0 0.00 0.00 0.00 3 1012.5
20260504060223 66 215 1.0 2.0 0.00 0.00 0.00 3 1012.4
20260504050719 62 0 0.0 0.0 0.00 0.00 0.00 4 1012.5
20260504050219 62 201 0.0 2.0 0.00 0.00 0.00 4 1012.5
20260504045719 61 0 0.0 0.0 0.00 0.00 0.00 4 1012.5
20260504045218 61 0 0.0 0.0 0.00 0.00 0.00 4 1012.4
20260504044718 61 206 0.0 1.0 0.00 0.00 0.00 4 1012.3
20260504044218 61 43 0.0 2.0 0.00 0.00 0.00 4 1012.3
20260504043717 61 0 0.0 0.0 0.00 0.00 0.00 4 1012.3
20260504043217 61 0 0.0 0.0 0.00 0.00 0.00 4 1012.2
20260504042717 61 0 0.0 0.0 0.00 0.00 0.00 4 1012.1
20260504042216 60 358 0.0 1.0 0.00 0.00 0.00 4 1012.2
20260504041716 60 0 0.0 0.0 0.00 0.00 0.00 4 1012.2
20260504041216 60 0 0.0 0.0 0.00 0.00 0.00 4 1012.4
20260504040715 59 0 0.0 0.0 0.00 0.00 0.00 4 1012.2
20260504040215 59 0 0.0 0.0 0.00 0.00 0.00 4 1012.3
20260504035715 58 0 0.0 0.0 0.00 0.00 0.00 4 1012.2
20260504035214 58 0 0.0 0.0 0.00 0.00 0.00 4 1012.3
20260504034714 58 0 0.0 0.0 0.00 0.00 0.00 4 1012.6
20260504034214 58 0 0.0 0.0 0.00 0.00 0.00 4 1012.3
20260504033713 58 0 0.0 0.0 0.00 0.00 0.00 4 1012.4
20260504033213 58 0 0.0 0.0 0.00 0.00 0.00 4 1012.4
20260504032713 58 0 0.0 0.0 0.00 0.00 0.00 4 1012.3
20260504032212 57 0 0.0 0.0 0.00 0.00 0.00 4 1012.3
20260504031712 57 0 0.0 0.0 0.00 0.00 0.00 4 1012.3
20260504031212 57 0 0.0 0.0 0.00 0.00 0.00 4 1012.3
20260504030711 57 0 0.0 0.0 0.00 0.00 0.00 4 1012.4
20260504030211 57 0 0.0 0.0 0.00 0.00 0.00 4 1012.4
20260504025711 57 0 0.0 0.0 0.00 0.00 0.00 5 1012.4
20260504025210 57 0 0.0 0.0 0.00 0.00 0.00 4 1012.3
20260504024710 57 0 0.0 0.0 0.00 0.00 0.00 4 1012.6
20260504024210 57 0 0.0 0.0 0.00 0.00 0.00 5 1012.5
20260504023709 57 0 0.0 0.0 0.00 0.00 0.00 5 1012.4
20260504023209 57 0 0.0 0.0 0.00 0.00 0.00 5 1012.2
20260504022709 57 0 0.0 0.0 0.00 0.00 0.00 5 1012.4
20260504022208 57 0 0.0 0.0 0.00 0.00 0.00 5 1012.6
20260504021708 57 0 0.0 0.0 0.00 0.00 0.00 5 1012.5
20260504021208 57 0 0.0 0.0 0.00 0.00 0.00 5 1012.7
20260504020707 57 0 0.0 0.0 0.00 0.00 0.00 5 1012.5
20260504020207 57 0 0.0 0.0 0.00 0.00 0.00 5 1012.4
20260504015707 58 0 0.0 0.0 0.00 0.00 0.00 5 1012.6
20260504015206 58 0 0.0 0.0 0.00 0.00 0.00 5 1012.5
20260504014706 58 0 0.0 0.0 0.00 0.00 0.00 5 1012.7
20260504014206 58 0 0.0 0.0 0.00 0.00 0.00 5 1012.4
20260504013705 59 0 0.0 0.0 0.00 0.00 0.00 5 1012.4
20260504013205 59 0 0.0 0.0 0.00 0.00 0.00 5 1012.7
20260504012705 59 0 0.0 0.0 0.00 0.00 0.00 5 1012.6
20260504012204 59 0 0.0 0.0 0.00 0.00 0.00 5 1012.6
20260504011704 59 0 0.0 0.0 0.00 0.00 0.00 5 1012.5
20260504011204 59 0 0.0 0.0 0.00 0.00 0.00 5 1012.5
20260504010703 59 0 0.0 0.0 0.00 0.00 0.00 5 1012.6
20260504010203 59 0 0.0 0.0 0.00 0.00 0.00 5 1012.7
20260504005703 60 0 0.0 0.0 0.00 0.00 0.00 4 1012.6
20260504005202 60 0 0.0 0.0 0.00 0.00 0.00 4 1012.7
20260504004702 60 0 0.0 0.0 0.00 0.00 0.00 4 1012.4
20260504004202 61 0 0.0 0.0 0.00 0.00 0.00 4 1012.3
20260504003701 60 0 0.0 0.0 0.00 0.00 0.00 4 1012.6
20260504003201 61 0 0.0 0.0 0.00 0.00 0.00 4 1012.5
20260504002701 61 0 0.0 0.0 0.00 0.00 0.00 4 1012.6
20260504002200 61 0 0.0 0.0 0.00 0.00 0.00 4 1012.4
20260504001700 61 0 0.0 0.0 0.00 0.00 0.00 4 1012.3
20260504001159 61 0 0.0 0.0 0.00 0.00 0.00 4 1012.4
20260504000659 61 0 0.0 0.0 0.00 0.00 0.00 4 1012.5
20260504000159 61 0 0.0 0.0 0.00 0.00 0.00 4 1012.3
20260503235658 61 0 0.0 0.0 0.00 0.00 0.00 4 1012.4
20260503235158 61 0 0.0 0.0 0.00 0.00 0.00 4 1012.4
20260503234658 60 0 0.0 0.0 0.00 0.00 0.00 4 1012.4
20260503234157 60 0 0.0 0.0 0.00 0.00 0.00 4 1012.4
20260503233657 60 0 0.0 0.0 0.00 0.00 0.00 4 1012.6
20260503233157 60 0 0.0 0.0 0.00 0.00 0.00 4 1012.7
20260503232656 60 0 0.0 0.0 0.00 0.00 0.00 4 1012.5
20260503232156 61 0 0.0 0.0 0.00 0.00 0.00 4 1012.7
20260503231656 60 0 0.0 0.0 0.00 0.00 0.00 4 1012.6
20260503231155 61 0 0.0 0.0 0.00 0.00 0.00 4 1012.6
20260503230655 61 0 0.0 0.0 0.00 0.00 0.00 4 1012.6
20260503230155 61 0 0.0 0.0 0.00 0.00 0.00 4 1012.6
20260503225654 61 0 0.0 0.0 0.00 0.00 0.00 4 1012.6
20260503225154 61 0 0.0 0.0 0.00 0.00 0.00 4 1012.7
20260503224654 62 0 0.0 0.0 0.00 0.00 0.00 4 1012.7
20260503224153 62 0 0.0 0.0 0.00 0.00 0.00 4 1012.8